Flag for Germany Weather past 2 weeks in Seelze, Lower Saxony, Germany

Now
36 °F

Sprinkles. Partly cloudy.


Feels Like: 29 °F
Forecast: 37 / 42 °F
Wind: 9 mph from West

Location: Hannover

Current Time: Apr 2, 2015 at 1:14:10 AM

Latest Report: Apr 2, 2015 at 12:50 AM


Visibility: N/A

Pressure: 29.83 "Hg

Humidity: 93%

Dew point: 34 °F

Location of SeelzeLocation

Historic Weather in Seelze — Graph

°F

Seelze temperature yesterday

Maximum temperature yesterday: 45 °F (at 1:50 PM)
Minimum temperature yesterday: 34 °F (at 7:20 PM)
Average temperature yesterday: 39 °F

Past Weeks' High & Low Weather Summary

 TemperatureHumidityPressure
High61 °F (Mar 18, 2:20 PM)100% (Mar 20, 5:20 AM)30.39 "Hg (Mar 20, 5:20 AM)
Low28 °F (Mar 20, 3:50 AM)36% (Mar 18, 2:20 PM)29.03 "Hg (Mar 31, 7:50 AM)
Average42 °F78%29.89 "Hg
* Reported Mar 17 11:20 PM — Apr 2 12:20 AM, Seelze, Weather by CustomWeather, © 2015

Note: Actual official high and low records may vary slightly from our data, if they occured in-between our weather recording intervals... More about our weather records

Advertising

Seelze weather history for previous 24 hours

 ConditionsComfort  
Time TempWeatherWind HumidityBarometerVisibility
12:20 AM
Thu, Apr 2
37 °FSprinkles. Partly cloudy.13 mph93%29.86 "HgN/A
11:50 PM
Wed, Apr 1
39 °FSprinkles. Partly cloudy.15 mph81%29.86 "HgN/A
11:20 PM37 °FPartly cloudy.8 mph87%29.86 "HgN/A
10:50 PM37 °FPartly cloudy.10 mph87%29.89 "HgN/A
10:20 PM36 °FPassing clouds.8 mph87%29.92 "HgN/A
9:50 PM36 °FPassing clouds.12 mph87%29.92 "HgN/A
9:20 PM37 °FPartly cloudy.20 mph81%29.92 "HgN/A
8:50 PM36 °FBroken clouds.12 mph93%29.92 "HgN/A
8:20 PM37 °FBroken clouds.16 mph87%29.92 "HgN/A
7:50 PM36 °FBroken clouds.13 mph93%29.92 "HgN/A
7:20 PM34 °FSnow flurries. Broken clouds.15 mph100%29.92 "HgN/A
6:50 PM37 °FRain showers. Partly sunny.10 mph93%29.89 "Hg5 mi
6:20 PM39 °FBroken clouds.16 mph81%29.89 "HgN/A
5:50 PM37 °FSprinkles. Broken clouds.16 mph87%29.89 "HgN/A
5:20 PM39 °FScattered showers. Partly sunny.16 mph81%29.89 "HgN/A
4:50 PM41 °FScattered showers. Partly sunny.10 mph81%29.89 "HgN/A
4:20 PM41 °FSprinkles. Broken clouds.12 mph76%29.89 "HgN/A
3:50 PM37 °FSprinkles. Broken clouds.14 mph87%29.89 "HgN/A
3:20 PM43 °FThundershowers. Broken clouds.24 mph66%29.86 "HgN/A
2:50 PM45 °FPartly sunny.22 mph66%29.86 "HgN/A
2:20 PM45 °FPartly sunny.17 mph66%29.86 "HgN/A
1:50 PM45 °FBroken clouds.18 mph66%29.86 "HgN/A
1:20 PM43 °FPartly sunny.28 mph71%29.86 "HgN/A
12:50 PM43 °FPartly sunny.24 mph76%29.83 "HgN/A
12:20 PM43 °FPartly sunny.28 mph71%29.83 "HgN/A
11:50 AM43 °FSprinkles. Broken clouds.25 mph71%29.83 "HgN/A
11:20 AM41 °FPartly sunny.23 mph81%29.83 "HgN/A
10:50 AM43 °FPartly sunny.26 mph76%29.80 "HgN/A
10:20 AM41 °FPartly sunny.22 mph81%29.80 "HgN/A
9:50 AM39 °FPartly sunny.20 mph87%29.80 "HgN/A
9:20 AM37 °FPartly sunny.21 mph93%29.77 "HgN/A
8:50 AM37 °FSprinkles. Partly sunny.20 mph87%29.77 "HgN/A
8:20 AM37 °FSprinkles. Partly sunny.21 mph87%29.74 "HgN/A
7:50 AM37 °FPassing clouds.21 mph87%29.74 "HgN/A
7:20 AM37 °FSprinkles. Passing clouds.17 mph87%29.71 "HgN/A
6:50 AM36 °FRain showers. Partly cloudy.24 mph93%29.71 "Hg4 mi
6:20 AM37 °FSprinkles. Passing clouds.22 mph81%29.68 "HgN/A
5:50 AM37 °FPassing clouds.21 mph81%29.68 "HgN/A
5:20 AM37 °FPassing clouds.18 mph87%29.65 "HgN/A
4:50 AM37 °FScattered showers. Passing clouds.15 mph87%29.65 "HgN/A
4:20 AM37 °FPassing clouds.16 mph87%29.65 "HgN/A
3:50 AM36 °FPartly cloudy.13 mph93%29.65 "HgN/A
3:20 AM37 °FSprinkles. Partly cloudy.25 mph87%29.65 "HgN/A
2:50 AM39 °FPassing clouds.20 mph81%29.62 "HgN/A
2:20 AM37 °FSprinkles. Passing clouds.18 mph87%29.62 "HgN/A
1:50 AM39 °FScattered showers. Passing clouds.17 mph81%29.59 "HgN/A
1:20 AM37 °FScattered showers. Passing clouds.20 mph87%29.59 "HgN/A
Weather by CustomWeather, © 2015

See weather overviewHow to use our weather pages